Regional Weather Roundup
Issued by NWS Upton, NY

Current Version | Previous Version | Graphics & Text | Print | Product List | Glossary Off
Versions: 1 2 3 4 5 6 7 8 9 10 11 12 13 14 15 16 17 18 19 20 21 22 23 24 25 26 27 28 29 30 31 32 33 34 35 36 37 38 39 40 41 42 43 44 45 46 47 48 49 50
000 ASUS41 KOKX 230208 RWROKX REGIONAL WEATHER ROUNDUP NATIONAL WEATHER SERVICE NEW YORK NY 900 PM EST WED FEB 22 2017 NOTE: "FAIR" INDICATES FEW OR NO CLOUDS BELOW 12,000 FEET WITH NO SIGNIFICANT WEATHER AND/OR OBSTRUCTIONS TO VISIBILITY. NYZ071-072-176-178-NJZ106-104-230300- NEW YORK CITY METRO AREA CITY SKY/WX TMP DP RH WIND PRES REMARKS Central Park CLOUDY 50 41 71 CALM 29.93S Wall St Helipt NOT AVBL LaGuardia APRT PTCLDY 52 44 74 S5 29.91R Kennedy INTL CLOUDY 44 42 93 CALM 29.93S Breezy Point N/A 41 N/A N/A NE2 N/A Newark/Liberty MOCLDY 51 42 71 CALM 29.91R Teterboro PTCLDY 51 42 71 SW3 29.91R $$ NYZ177-179-078>081-230300- LONG ISLAND NEW YORK CITY SKY/WX TMP DP RH WIND PRES REMARKS Jones Beach N/A 43 N/A N/A CALM N/A Matinecock PT NOT AVBL Farmingdale PTCLDY 45 43 93 CALM 29.92S MacArthur/ISP FOG 43 43 100 SW3 29.91S VSB 1 Shirley FOG 44 44 100 W3 29.92F VSB 1/2 Westhampton FOG 44 44 100 CALM 29.93F VSB 1/4 Southampton NOT AVBL Bridgehampton NOT AVBL East Hampton FOG 45 44 97 SW5 29.92S VSB 1 Montauk N/A 46 44 93 S5 29.94S $$ NYZ052-065-067-230300- HUDSON VALLEY CITY SKY/WX TMP DP RH WIND PRES REMARKS White Plains CLOUDY 42 36 79 CALM 29.90S Newburgh PTCLDY 43 39 87 VRB5 29.91R Montgomery CLEAR 37 34 89 CALM 29.88S Poughkeepsie PTCLDY 41 36 82 CALM 29.89S Albany PTCLDY 48 35 60 S8 29.87R $$ NJZ001-105-106-008-010-013-015-019>022-104-230300- NEW JERSEY CITY SKY/WX TMP DP RH WIND PRES REMARKS Newark/Liberty MOCLDY 51 42 71 CALM 29.91R Teterboro PTCLDY 51 42 71 SW3 29.91R Caldwell PTCLDY 47 39 74 CALM 29.91F Somerville PTCLDY 45 38 76 CALM 29.90R Linden NOT AVBL Sussex CLEAR 39 38 96 CALM 29.90S Andover N/A 38 36 92 CALM 29.90S Trenton PTCLDY 50 42 74 SW3 29.91S Millville CLOUDY 43 43 100 CALM 29.93S Atlantic City PTCLDY 48 44 86 CALM 29.93S Wrightstown CLOUDY 49 43 79 CALM 29.90R Toms River CLOUDY 47 45 93 W3 29.94R Belmar CLEAR 46 44 93 SW5 29.93R $$ PAZ047>061-062-071-230300- EASTERN PENNSYLVANIA CITY SKY/WX TMP DP RH WIND PRES REMARKS Philadelphia CLOUDY 52 44 74 SW6 29.94R Allentown CLOUDY 47 38 71 CALM 29.90S Scranton CLEAR 47 39 74 E3 29.88R $$ CTZ002-004>006-009-010-012-RIZ004-006-007-MAZ004-011-015-230300- SOUTHERN NEW ENGLAND IN CT CITY SKY/WX TMP DP RH WIND PRES REMARKS Bradley INTL PTCLDY 43 36 76 SE7 29.88F Hartford MOCLDY 42 36 79 SE5 29.90S Danbury CLEAR 38 35 89 W3 29.91F Wtrbury/Oxford PTCLDY 45 36 70 CALM 29.91S Bridgeport PTCLDY 43 37 79 CALM 29.92S Meriden CLOUDY 40 35 83 CALM 29.90F New Haven CLOUDY 40 36 86 CALM 29.91F Chester CLOUDY 45 39 81 CALM 29.91S Groton CLOUDY 40 37 89 CALM 29.92S Wilimantic PTCLDY 41 36 82 CALM 29.91S IN RI CITY SKY/WX TMP DP RH WIND PRES REMARKS Providence PTCLDY 41 35 79 S5 29.91R Block Island CLOUDY 43 43 100 SW13 29.93R Westerly CLOUDY 41 35 79 CALM 29.93R IN MA CITY SKY/WX TMP DP RH WIND PRES REMARKS Boston CLEAR 40 38 93 E3 29.91S Worcester CLEAR 46 34 62 W8 29.88S Westfield CLEAR 37 33 85 CALM 29.88S Provincetown CLEAR 41 37 86 S7 29.92S Nantucket CLOUDY 41 39 93 SW7 29.94S $$ ANZ330-335-338-340-345-350-353-355-230300- COASTAL MARINE OBSERVATIONS STATION/POSITION TIME SKY/WX TEMP WIND PRES VSBY WAVE AIR SEA DIR/SP/G HT/PER (UTC) (F) (DEG/KT/KT) (MB) (MI) (FT/S) NY HARB ENTRANCE 0050 43 42 170/ 8/ 8 1012.5 2/ 9 20 S FIRE ISLAND 0050 43 43 210/ 4/ 4 1013.2 2/10 GREAT SOUTH BAY NOT AVBL 23 SSW MONTAUK P 0050 45 45 1014.0 3/11 15 E BARNEGAT LI 0130 42 N/A 3/ 8 HUDSON CANYON 0050 50 1014.0 3/10 KINGS POINT 0142 47 39 1012.9 EXECUTION ROCKS NOT AVBL CENTRAL LI SOUND 0100 41 190/ 2/ 2 N/A 0 EASTERN LI SOUND NOT AVBL ROBBINS REEF 0142 47 110/ 2/ 2 1013.3 $$ >>>>>>>>>>>>>>>>>>>>>>>>>>>> KEY <<<<<<<<<<<<<<<<<<<<<<<<<<< > < > SKY/WX - Sky Condition/Present Weather < > TMP - Temperature in Fahrenheit < > DP - Dew Point in Fahrenheit < > RH - Relative Humidity in Percent < > WIND - Direction (from) and Speed in MPH < > PRES - Mean Sea Level Pressure (inches of Hg) < > WCI - Wind Chill Index < > VSB - VISIBILITY IN MILES < > HX - HEAT INDEX < > TC - TEMPERATURE IN CELSIUS < > VRB - VARIABLE WIND DIRECTION < > < >>>>>>>>>>>>>>>>>>>>>>>>>>>> KEY <<<<<<<<<<<<<<<<<<<<<<<<<<<

USA.gov is the U.S. government's official web portal to all federal, state and local government web resources and services.